Regional Weather Roundup
Issued by NWS Charleston, SC

Current Version | Previous Version | Graphics & Text | Print | Product List | Glossary On
Versions: 1 2 3 4 5 6 7 8 9 10 11 12 13 14 15 16 17 18 19 20 21 22 23 24 25 26 27 28 29 30 31 32 33 34 35 36 37 38 39 40 41 42 43 44 45 46 47 48 49 50
000 ASUS42 KCHS 292110 RWRCHS REGIONAL WEATHER ROUNDUP NATIONAL WEATHER SERVICE CHARLESTON SC 500 PM EDT MON SEP 29 2014 NOTE: "FAIR" INDICATES FEW OR NO CLOUDS BELOW 12,000 FEET WITH NO SIGNIFICANT WEATHER AND/OR OBSTRUCTIONS TO VISIBILITY. NOT ALL STATIONS ARE QUALITY CONTROLLED BY THE NATIONAL WEATHER SERVICE. USE DATA WITH CAUTION...ESPECIALLY DEWPOINT OBSERVATIONS. SCZ027-030-031-034>040-042>050-292200- ...SOUTH CAROLINA... CITY SKY/WX TMP DP RH WIND PRES REMARKS N CHARLESTON LGT RAIN 69 65 86 N10 29.93R WATERFRONT PRK NOT AVBL FORT JOHNSON NOT AVBL MOUNT PLEASANT LGT RAIN 68 66 94 N5 29.93S JOHNS ISLAND RAIN 68 68 100 N9 29.93R VSB 1 PINOPOLIS N/A 66 64 94 NE13 29.87F MONCKS CORNER LGT RAIN 66 66 100 NE8 29.94S SUMMERVILLE RAIN 64 64 100 N5 29.95S BEAUFORT MCAS RAIN 70 68 93 N10 29.91F BEAUFORT ARPT RAIN 72 72 100 N8 29.90F HILTON HEAD IS LGT RAIN 72 70 94 N8 29.91F GEORGETOWN NOT AVBL WALTERBORO RAIN 68 N/A N/A NE5 29.93F ORANGEBURG LGT RAIN 68 64 87 E6 29.95S BARNWELL CLOUDY 70 66 88 NE10 29.94F AIKEN CLOUDY 73 66 78 NE8 29.97F MANNING CLOUDY 64 N/A N/A NE5 29.96S KINGSTREE NOT AVBL COLUMBIA CLOUDY 72 63 73 E10 29.94S SUMTER CLOUDY 69 65 86 E3 29.94S FLORENCE LGT RAIN 69 67 93 E8 29.96S FOG MYRTLE BEACH NOT AVBL N MYRTLE BEACH LGT RAIN 69 63 81 NE8 29.95R $$ GAZ063-065-086>088-099>101-113>116-118-119-134-136>141-150-292200- ...GEORGIA... CITY SKY/WX TMP DP RH WIND PRES REMARKS SAVANNAH ARPT LGT RAIN 74 70 87 NE9 29.89S HUNTER AAF DRIZZLE 73 73 100 NE8 29.87F FORT STEWART RAIN 74 72 95 CALM 29.87F FOG STATESBORO NOT AVBL SYLVANIA DRIZZLE 73 72 98 E7 29.92F CLAXTON LGT RAIN 73 73 100 NE10 29.90S THOMSON CLOUDY 73 72 97 N3 29.98F AUGUSTA-BUSH CLOUDY 74 66 76 E9 29.93S AUGUSTA-DANIEL CLOUDY 73 66 78 NE6 29.94F SWAINSBORO CLOUDY 75 75 100 E6 29.92S VIDALIA CLOUDY 73 72 94 NE10 29.89F ALMA CLOUDY 75 71 87 NE5 29.87S WAYCROSS HVY RAIN 76 75 98 E8 29.87S JESUP LGT RAIN 77 73 88 E8 29.88S BRUNSWICK CLOUDY 75 72 88 NE8 29.87F SAINT SIMONS RAIN 74 73 97 NE9 29.86S FOG $$ SCZ027-028-034-036>038-045-046-048>050-GAZ119-141-292200- ...LAKE AND SUPPLEMENTAL COASTAL OBSERVATIONS... STATION/POSITION TIME TEMP WIND PRES WAVE SWELL AIR SEA DIR/SP/G HT/PER HT/PER/DIR (UTC) (F) (DEG/KT/KT) (MB) (FT/S) (FT/S/D) UPR LAKE MARION NOT AVBL WINYAH BAY 2000 70 10/ 6 1013.0S LAKE MURRAY 2000 70 40/ 4/ 6 1013.9S ACE BASIN NERRS 2000 72 30/ 3 1013.0S FORT PULASKI 2100 73 40/ 10/ 13 1012.3F SAPELO ISLAND NOT AVBL $$ ANZ835-935-AMZ111-154-330-350-352-354-374-450-454-472-292200- ...C-MAN AND BUOY OBSERVATIONS... STATION/POSITION TIME TEMP WIND PRES WAVE SWELL AIR SEA DIR/SP/G HT/PER HT/PER/DIR (UTC) (F) (DEG/KT/KT) (MB) (FT/S) (FT/S/D) FOLLY BEACH CMAN 2000 73 40/ 14/ 16 1013.3F BUOY 41004 2100 75 81 80/ 12/ 16 1011.8F 3/ 8 2/ 8 BUOY 41008 2100 76 79 40/ 16/ 17 1010.9F 3/ 8 2/ 90/ 8 5E ST. MARYS GA 2100 79 N/A 2/ 8 FRYING PAN BUOY NOT AVBL BUOY 41025 2100 74 10/ 14/ 16 1013.1F 3/ 8 2/ 80/ 8 CAPE LOOKOUT NC 2000 74 20/ 9/ 12 1013.5F BUOY 41002 2028 79 82 120/ 6/ 8 1012.7F 3/ 7 3/ 60/ 7 BUOY 41010 2100 80 85 100/ 8/ 16 1010.8R 4/ 8 3/ 80/ 8 BUOY 41012 NOT AVBL ST AUGUSTINE FL 2100 74 70/ 3/ 4 1011.5S CAPERS NEARSHORE 2000 71 50/ 17/ 19 N/A FRIPP NEARSHORE NOT AVBL $$

USA.gov is the U.S. government's official web portal to all federal, state and local government web resources and services.